QPF
0.01 0.01 0.01 0.00 0.00 0.01 0.00 0.00 0.00 0.00 0.00 0.00 0.00 0.00 0.01 0.01 0.01 0.00 0.00 0.00 0.00 0.00 0.00 0.00 0.00 0.00 0.00 0.00 0.01 0.00 0.00 0.00 0.00 0.00 0.00 0.00 0.00 0.00 0.00 0.00 0.00 0.00 0.00 0.00
0.00 0.01 0.01 0.00 0.00 0.01 0.00 0.00 0.00 0.00 0.00 0.01 0.01 0.01 0.01 0.01 0.01 0.00 0.00 0.00 0.00 0.00 0.00 0.00 0.00 0.00 0.01 0.01 0.01 0.01 0.00 0.00 0.00 0.00 0.00 0.00 0.00 0.00 0.00 0.00 0.00 0.00 0.00 0.00
0.00 0.00 0.00 0.00 0.00 0.01 0.01 0.00 0.01 0.00 0.01 0.01 0.01 0.01 0.01 0.01 0.01 0.01 0.00 0.00 0.01 0.01 0.01 0.01 0.00 0.01 0.01 0.01 0.01 0.01 0.00 0.00 0.00 0.00 0.00 0.00 0.00 0.00 0.00 0.00 0.00 0.00 0.00 0.00
0.00 0.00 0.00 0.01 0.01 0.01 0.01 0.01 0.01 0.01 0.00 0.01 0.01 0.01 0.01 0.01 0.01 0.01 0.01 0.00 0.01 0.01 0.01 0.01 0.01 0.01 0.01 0.01 0.00 0.00 0.00 0.00 0.00 0.00 0.00 0.00 0.00 0.00 0.00 0.00 0.00 0.00 0.00 0.00
0.00 0.00 0.00 0.01 0.01 0.01 0.02 0.02 0.02 0.01 0.01 0.01 0.01 0.02 0.01 0.01 0.01 0.01 0.01 0.01 0.01 0.01 0.01 0.01 0.01 0.01 0.01 0.01 0.00 0.00 0.00 0.00 0.00 0.00 0.00 0.00 0.00 0.00 0.00 0.00 0.00 0.00 0.00 0.00
0.01 0.01 0.00 0.01 0.01 0.02 0.02 0.02 0.02 0.01 0.01 0.01 0.02 0.02 0.03 0.04 0.03 0.02 0.02 0.02 0.01 0.01 0.01 0.01 0.01 0.01 0.01 0.01 0.00 0.00 0.00 0.00 0.00 0.00 0.00 0.00 0.00 0.00 0.00 0.00 0.00 0.00 0.00 0.00
0.01 0.01 0.01 0.01 0.01 0.02 0.02 0.02 0.02 0.02 0.03 0.03 0.03 0.04 0.05 0.05 0.04 0.04 0.03 0.02 0.02 0.02 0.01 0.01 0.01 0.01 0.01 0.01 0.01 0.01 0.01 0.01 0.01 0.01 0.01 0.01 0.01 0.01 0.01 0.01 0.01 0.00 0.00 0.00
0.02 0.02 0.01 0.01 0.02 0.03 0.03 0.03 0.03 0.02 0.02 0.03 0.04 0.04 0.04 0.04 0.04 0.04 0.04 0.04 0.04 0.04 0.04 0.03 0.03 0.03 0.02 0.02 0.03 0.03 0.02 0.02 0.02 0.02 0.02 0.01 0.01 0.01 0.01 0.01 0.01 0.01 0.00 0.00
0.01 0.02 0.01 0.02 0.02 0.02 0.02 0.03 0.03 0.02 0.01 0.02 0.03 0.04 0.04 0.05 0.06 0.05 0.05 0.05 0.05 0.05 0.06 0.05 0.04 0.04 0.03 0.04 0.04 0.03 0.03 0.03 0.02 0.02 0.02 0.02 0.01 0.01 0.01 0.01 0.01 0.00 0.00 0.00
0.01 0.01 0.02 0.01 0.01 0.02 0.02 0.02 0.02 0.02 0.01 0.01 0.02 0.03 0.03 0.03 0.04 0.05 0.04 0.05 0.06 0.06 0.06 0.05 0.04 0.03 0.03 0.03 0.03 0.03 0.02 0.02 0.02 0.02 0.02 0.01 0.01 0.01 0.01 0.01 0.00 0.00 0.00 0.00
0.02 0.02 0.02 0.02 0.02 0.03 0.03 0.03 0.02 0.02 0.02 0.01 0.01 0.01 0.02 0.02 0.02 0.02 0.03 0.03 0.04 0.04 0.04 0.05 0.04 0.04 0.04 0.03 0.03 0.03 0.02 0.02 0.02 0.02 0.02 0.02 0.02 0.02 0.02 0.01 0.01 0.01 0.01 0.01
0.03 0.03 0.02 0.03 0.03 0.03 0.04 0.04 0.03 0.02 0.01 0.01 0.01 0.01 0.00 0.00 0.00 0.01 0.01 0.01 0.02 0.02 0.03 0.03 0.04 0.03 0.03 0.03 0.04 0.04 0.04 0.04 0.05 0.05 0.04 0.03 0.03 0.02 0.02 0.02 0.02 0.02 0.02 0.02
0.04 0.05 0.05 0.04 0.05 0.05 0.05 0.04 0.03 0.02 0.01 0.01 0.00 0.00 0.00 0.00 0.00 0.00 0.00 0.00 0.01 0.01 0.01 0.02 0.02 0.02 0.03 0.03 0.03 0.04 0.04 0.04 0.04 0.04 0.04 0.03 0.03 0.02 0.01 0.01 0.01 0.01 0.01 0.01
0.06 0.06 0.06 0.05 0.05 0.06 0.06 0.04 0.03 0.01 0.01 0.00 0.00 0.00 0.00 0.00 0.00 0.00 0.00 0.00 0.00 0.00 0.00 0.01 0.01 0.01 0.01 0.01 0.01 0.02 0.02 0.02 0.02 0.02 0.02 0.02 0.02 0.02 0.01 0.01 0.01 0.00 0.00 0.00
0.06 0.07 0.07 0.06 0.06 0.05 0.04 0.02 0.01 0.01 0.00 0.00 0.00 0.00 0.00 0.00 0.00 0.00 0.00 0.00 0.00 0.00 0.00 0.00 0.00 0.00 0.00 0.00 0.00 0.00 0.00 0.00 0.00 0.01 0.01 0.00 0.00 0.00 0.00 0.00 0.00 0.00 0.00 0.00
0.07 0.07 0.06 0.05 0.05 0.04 0.03 0.02 0.02 0.01 0.00 0.00 0.00 0.00 0.00 0.00 0.00 0.00 0.00 0.00 0.00 0.00 0.00 0.00 0.00 0.00 0.00 0.00 0.00 0.00 0.00 0.00 0.00 0.00 0.00 0.00 0.00 0.00 0.00 0.00 0.00 0.00 0.00 0.00
0.06 0.05 0.04 0.03 0.02 0.02 0.02 0.01 0.01 0.00 0.00 0.00 0.00 0.00 0.00 0.00 0.00 0.00 0.00 0.00 0.00 0.00 0.00 0.00 0.00 0.00 0.00 0.00 0.00 0.00 0.00 0.00 0.00 0.00 0.00 0.00 0.00 0.00 0.00 0.00 0.00 0.00 0.00 0.01
0.03 0.03 0.03 0.04 0.04 0.03 0.02 0.01 0.00 0.00 0.00 0.00 0.00 0.00 0.00 0.00 0.00 0.00 0.00 0.00 0.00 0.00 0.00 0.00 0.00 0.00 0.00 0.00 0.00 0.00 0.00 0.00 0.00 0.00 0.00 0.00 0.00 0.00 0.00 0.00 0.00 0.01 0.01 0.01
0.02 0.02 0.02 0.03 0.03 0.03 0.01 0.01 0.00 0.00 0.00 0.00 0.00 0.00 0.00 0.00 0.00 0.00 0.00 0.00 0.00 0.00 0.00 0.00 0.00 0.00 0.00 0.00 0.00 0.00 0.00 0.00 0.00 0.00 0.00 0.00 0.00 0.00 0.00 0.00 0.00 0.01 0.01 0.01
0.01 0.01 0.01 0.01 0.01 0.01 0.01 0.01 0.00 0.00 0.00 0.00 0.00 0.00 0.00 0.00 0.00 0.00 0.00 0.00 0.00 0.00 0.00 0.00 0.00 0.00 0.00 0.00 0.00 0.00 0.00 0.00 0.00 0.00 0.00 0.00 0.00 0.00 0.00 0.00 0.01 0.01 0.02 0.02
0.01 0.01 0.01 0.01 0.01 0.01 0.00 0.00 0.00 0.00 0.00 0.00 0.00 0.00 0.00 0.00 0.00 0.00 0.00 0.00 0.00 0.00 0.00 0.00 0.00 0.00 0.00 0.00 0.00 0.00 0.00 0.00 0.00 0.00 0.00 0.00 0.00 0.00 0.00 0.01 0.02 0.04 0.04 0.04
0.01 0.01 0.01 0.01 0.00 0.00 0.00 0.00 0.00 0.00 0.00 0.00 0.00 0.00 0.00 0.00 0.00 0.00 0.00 0.00 0.00 0.00 0.00 0.00 0.00 0.00 0.00 0.00 0.00 0.00 0.00 0.00 0.00 0.00 0.00 0.00 0.00 0.01 0.01 0.02 0.03 0.04 0.04 0.03
0.02 0.01 0.00 0.00 0.00 0.00 0.00 0.00 0.00 0.00 0.00 0.00 0.00 0.00 0.00 0.00 0.00 0.00 0.00 0.00 0.00 0.00 0.00 0.00 0.00 0.00 0.00 0.00 0.00 0.00 0.00 0.00 0.00 0.00 0.00 0.00 0.01 0.02 0.03 0.03 0.04 0.03 0.04 0.04
0.00 0.00 0.00 0.00 0.00 0.00 0.00 0.00 0.00 0.00 0.00 0.00 0.00 0.00 0.00 0.00 0.00 0.00 0.00 0.00 0.00 0.00 0.00 0.00 0.00 0.00 0.00 0.00 0.00 0.00 0.00 0.00 0.00 0.00 0.01 0.02 0.02 0.03 0.03 0.03 0.04 0.05 0.06 0.06
0.00 0.00 0.00 0.00 0.00 0.00 0.00 0.00 0.00 0.00 0.00 0.00 0.00 0.00 0.00 0.00 0.00 0.00 0.00 0.00 0.00 0.00 0.00 0.00 0.00 0.00 0.00 0.00 0.00 0.00 0.00 0.00 0.01 0.01 0.01 0.02 0.01 0.01 0.02 0.05 0.07 0.07 0.07 0.07
0.00 0.00 0.00 0.00 0.00 0.00 0.00 0.00 0.00 0.00 0.00 0.00 0.00 0.00 0.00 0.00 0.00 0.00 0.00 0.00 0.00 0.01 0.00 0.00 0.00 0.00 0.00 0.00 0.00 0.00 0.00 0.00 0.01 0.01 0.01 0.01 0.01 0.02 0.04 0.06 0.07 0.08 0.09 0.11
0.00 0.00 0.00 0.00 0.00 0.00 0.00 0.00 0.00 0.00 0.00 0.00 0.00 0.00 0.00 0.00 0.00 0.00 0.01 0.01 0.01 0.01 0.01 0.00 0.00 0.00 0.00 0.00 0.00 0.00 0.00 0.01 0.01 0.01 0.01 0.01 0.02 0.05 0.07 0.08 0.08 0.11 0.14 0.13
MSLP
1011.97 1012.44 1012.90 1013.34 1013.70 1013.94 1014.04 1013.96 1013.71 1013.28 1012.73 1012.09 1011.44 1010.82 1010.29 1009.87 1009.58 1009.42 1009.35 1009.38 1009.46 1009.60 1009.78 1010.03 1010.35 1010.76 1011.27 1011.87 1012.54 1013.26 1013.98 1014.66 1015.26 1015.77 1016.16 1016.45 1016.66 1016.81 1016.93 1017.05 1017.18 1017.33 1017.48 1017.64
1012.10 1012.45 1012.77 1013.04 1013.22 1013.32 1013.31 1013.19 1012.95 1012.61 1012.20 1011.74 1011.27 1010.81 1010.39 1010.02 1009.72 1009.48 1009.29 1009.16 1009.09 1009.08 1009.15 1009.33 1009.61 1010.03 1010.57 1011.22 1011.94 1012.70 1013.46 1014.16 1014.77 1015.27 1015.66 1015.95 1016.15 1016.30 1016.43 1016.55 1016.68 1016.83 1016.98 1017.13
1012.33 1012.57 1012.73 1012.83 1012.86 1012.82 1012.73 1012.57 1012.37 1012.12 1011.84 1011.54 1011.23 1010.91 1010.60 1010.29 1009.98 1009.67 1009.39 1009.12 1008.91 1008.77 1008.73 1008.82 1009.06 1009.44 1009.97 1010.62 1011.34 1012.10 1012.85 1013.54 1014.14 1014.63 1015.01 1015.29 1015.51 1015.68 1015.83 1015.98 1016.13 1016.30 1016.46 1016.62
1012.64 1012.74 1012.76 1012.70 1012.60 1012.46 1012.29 1012.12 1011.95 1011.78 1011.62 1011.46 1011.28 1011.09 1010.87 1010.61 1010.31 1009.97 1009.61 1009.25 1008.94 1008.70 1008.56 1008.57 1008.74 1009.07 1009.55 1010.15 1010.83 1011.53 1012.23 1012.86 1013.42 1013.88 1014.25 1014.54 1014.78 1014.98 1015.17 1015.37 1015.56 1015.75 1015.94 1016.10
1012.91 1012.87 1012.76 1012.58 1012.37 1012.15 1011.95 1011.77 1011.64 1011.54 1011.48 1011.42 1011.36 1011.27 1011.13 1010.93 1010.65 1010.31 1009.93 1009.53 1009.16 1008.86 1008.66 1008.61 1008.71 1008.96 1009.36 1009.88 1010.46 1011.07 1011.67 1012.23 1012.72 1013.13 1013.48 1013.77 1014.03 1014.28 1014.51 1014.75 1014.98 1015.20 1015.40 1015.55
1013.01 1012.85 1012.63 1012.36 1012.09 1011.83 1011.62 1011.47 1011.38 1011.34 1011.36 1011.39 1011.42 1011.42 1011.35 1011.21 1010.98 1010.67 1010.31 1009.92 1009.55 1009.23 1009.01 1008.92 1008.96 1009.14 1009.44 1009.85 1010.31 1010.80 1011.28 1011.72 1012.12 1012.48 1012.79 1013.08 1013.35 1013.62 1013.89 1014.17 1014.43 1014.66 1014.85 1014.98
1012.83 1012.57 1012.27 1011.97 1011.68 1011.43 1011.25 1011.14 1011.11 1011.15 1011.24 1011.35 1011.45 1011.52 1011.52 1011.44 1011.28 1011.04 1010.74 1010.41 1010.08 1009.80 1009.59 1009.48 1009.48 1009.59 1009.80 1010.08 1010.40 1010.75 1011.10 1011.42 1011.72 1012.00 1012.26 1012.53 1012.80 1013.08 1013.37 1013.65 1013.91 1014.14 1014.30 1014.39
1012.29 1011.97 1011.66 1011.36 1011.11 1010.93 1010.82 1010.79 1010.84 1010.95 1011.12 1011.29 1011.46 1011.60 1011.67 1011.67 1011.59 1011.44 1011.23 1010.99 1010.74 1010.52 1010.35 1010.25 1010.22 1010.27 1010.39 1010.55 1010.74 1010.95 1011.15 1011.35 1011.55 1011.74 1011.95 1012.17 1012.42 1012.69 1012.96 1013.23 1013.46 1013.65 1013.76 1013.79
1011.42 1011.10 1010.81 1010.58 1010.42 1010.34 1010.35 1010.43 1010.59 1010.79 1011.03 1011.28 1011.52 1011.72 1011.86 1011.94 1011.95 1011.90 1011.80 1011.66 1011.51 1011.37 1011.25 1011.16 1011.12 1011.12 1011.15 1011.21 1011.27 1011.35 1011.42 1011.51 1011.60 1011.71 1011.85 1012.02 1012.23 1012.45 1012.68 1012.90 1013.08 1013.20 1013.24 1013.19
1010.34 1010.05 1009.84 1009.72 1009.69 1009.76 1009.91 1010.13 1010.40 1010.72 1011.04 1011.37 1011.67 1011.93 1012.14 1012.29 1012.39 1012.44 1012.43 1012.40 1012.34 1012.27 1012.21 1012.14 1012.08 1012.04 1011.99 1011.95 1011.91 1011.87 1011.84 1011.82 1011.82 1011.85 1011.93 1012.04 1012.18 1012.35 1012.51 1012.66 1012.76 1012.79 1012.75 1012.62
1009.22 1009.01 1008.91 1008.92 1009.05 1009.27 1009.58 1009.95 1010.35 1010.77 1011.19 1011.58 1011.94 1012.26 1012.53 1012.75 1012.92 1013.05 1013.13 1013.18 1013.19 1013.18 1013.15 1013.09 1013.01 1012.92 1012.81 1012.68 1012.55 1012.42 1012.30 1012.20 1012.13 1012.10 1012.11 1012.16 1012.24 1012.33 1012.42 1012.48 1012.49 1012.43 1012.29 1012.08
1008.28 1008.17 1008.19 1008.35 1008.63 1009.01 1009.47 1009.97 1010.48 1010.99 1011.48 1011.93 1012.34 1012.70 1013.01 1013.28 1013.50 1013.68 1013.82 1013.92 1013.98 1013.99 1013.97 1013.90 1013.79 1013.65 1013.47 1013.28 1013.08 1012.88 1012.71 1012.55 1012.43 1012.36 1012.32 1012.32 1012.34 1012.35 1012.36 1012.32 1012.24 1012.08 1011.86 1011.57
1007.69 1007.68 1007.82 1008.10 1008.51 1009.02 1009.59 1010.19 1010.79 1011.36 1011.89 1012.38 1012.81 1013.19 1013.52 1013.81 1014.06 1014.27 1014.43 1014.55 1014.62 1014.63 1014.59 1014.49 1014.34 1014.15 1013.92 1013.68 1013.43 1013.19 1012.98 1012.80 1012.66 1012.56 1012.49 1012.44 1012.40 1012.35 1012.27 1012.14 1011.96 1011.72 1011.41 1011.05
1007.54 1007.62 1007.86 1008.24 1008.74 1009.32 1009.96 1010.60 1011.23 1011.83 1012.37 1012.85 1013.27 1013.65 1013.97 1014.26 1014.51 1014.71 1014.87 1014.98 1015.03 1015.02 1014.94 1014.80 1014.61 1014.37 1014.10 1013.82 1013.55 1013.30 1013.08 1012.90 1012.75 1012.64 1012.56 1012.48 1012.39 1012.27 1012.11 1011.90 1011.63 1011.30 1010.91 1010.49
1007.83 1007.98 1008.28 1008.72 1009.26 1009.87 1010.51 1011.15 1011.76 1012.32 1012.83 1013.27 1013.66 1013.99 1014.29 1014.55 1014.77 1014.95 1015.08 1015.16 1015.17 1015.12 1015.00 1014.82 1014.59 1014.32 1014.02 1013.73 1013.45 1013.21 1013.00 1012.84 1012.71 1012.60 1012.51 1012.40 1012.27 1012.09 1011.85 1011.55 1011.19 1010.77 1010.31 1009.82
1008.48 1008.69 1009.02 1009.47 1010.00 1010.58 1011.18 1011.76 1012.30 1012.78 1013.21 1013.58 1013.90 1014.18 1014.42 1014.62 1014.80 1014.94 1015.03 1015.07 1015.04 1014.95 1014.79 1014.57 1014.31 1014.02 1013.73 1013.44 1013.18 1012.97 1012.79 1012.65 1012.55 1012.45 1012.35 1012.22 1012.03 1011.79 1011.47 1011.08 1010.62 1010.11 1009.56 1009.00
1009.35 1009.58 1009.92 1010.35 1010.84 1011.35 1011.86 1012.34 1012.78 1013.16 1013.49 1013.76 1013.99 1014.18 1014.35 1014.50 1014.62 1014.71 1014.75 1014.75 1014.69 1014.56 1014.37 1014.14 1013.87 1013.58 1013.30 1013.04 1012.81 1012.63 1012.50 1012.39 1012.31 1012.22 1012.10 1011.93 1011.69 1011.37 1010.96 1010.47 1009.91 1009.30 1008.66 1008.01
1010.27 1010.52 1010.85 1011.24 1011.66 1012.08 1012.49 1012.86 1013.17 1013.43 1013.65 1013.81 1013.95 1014.06 1014.15 1014.23 1014.30 1014.33 1014.34 1014.30 1014.20 1014.06 1013.86 1013.62 1013.36 1013.09 1012.83 1012.61 1012.42 1012.29 1012.18 1012.11 1012.04 1011.94 1011.80 1011.58 1011.27 1010.86 1010.35 1009.75 1009.08 1008.36 1007.62 1006.89
1011.12 1011.37 1011.67 1012.01 1012.36 1012.70 1013.00 1013.26 1013.46 1013.61 1013.71 1013.78 1013.83 1013.86 1013.89 1013.91 1013.92 1013.92 1013.89 1013.82 1013.71 1013.55 1013.36 1013.13 1012.89 1012.65 1012.43 1012.24 1012.10 1011.99 1011.92 1011.85 1011.78 1011.66 1011.47 1011.19 1010.80 1010.30 1009.68 1008.97 1008.18 1007.35 1006.52 1005.71
1011.80 1012.05 1012.32 1012.62 1012.90 1013.16 1013.38 1013.54 1013.65 1013.71 1013.73 1013.72 1013.70 1013.67 1013.64 1013.62 1013.60 1013.56 1013.51 1013.43 1013.31 1013.16 1012.97 1012.76 1012.54 1012.34 1012.15 1012.00 1011.88 1011.80 1011.73 1011.66 1011.56 1011.41 1011.17 1010.81 1010.34 1009.74 1009.02 1008.20 1007.31 1006.39 1005.46 1004.58
1012.31 1012.54 1012.79 1013.04 1013.27 1013.47 1013.62 1013.72 1013.76 1013.76 1013.73 1013.67 1013.60 1013.54 1013.48 1013.43 1013.39 1013.33 1013.27 1013.18 1013.07 1012.92 1012.75 1012.56 1012.37 1012.19 1012.03 1011.90 1011.79 1011.71 1011.64 1011.55 1011.42 1011.21 1010.91 1010.48 1009.93 1009.24 1008.44 1007.54 1006.57 1005.58 1004.59 1003.66
1012.69 1012.88 1013.10 1013.31 1013.50 1013.65 1013.76 1013.81 1013.82 1013.79 1013.72 1013.65 1013.56 1013.48 1013.42 1013.36 1013.31 1013.26 1013.19 1013.11 1013.00 1012.87 1012.71 1012.55 1012.38 1012.21 1012.06 1011.94 1011.83 1011.74 1011.64 1011.52 1011.34 1011.08 1010.72 1010.24 1009.62 1008.88 1008.02 1007.07 1006.06 1005.03 1004.02 1003.07
1013.00 1013.15 1013.31 1013.47 1013.62 1013.73 1013.81 1013.84 1013.83 1013.78 1013.72 1013.64 1013.56 1013.49 1013.43 1013.39 1013.34 1013.30 1013.25 1013.18 1013.08 1012.97 1012.83 1012.68 1012.52 1012.37 1012.22 1012.09 1011.97 1011.86 1011.73 1011.56 1011.34 1011.04 1010.63 1010.11 1009.46 1008.70 1007.82 1006.87 1005.86 1004.84 1003.85 1002.92
1013.31 1013.39 1013.50 1013.60 1013.70 1013.77 1013.81 1013.82 1013.80 1013.75 1013.69 1013.63 1013.57 1013.52 1013.49 1013.46 1013.44 1013.42 1013.39 1013.34 1013.26 1013.17 1013.05 1012.91 1012.77 1012.62 1012.47 1012.33 1012.19 1012.04 1011.88 1011.68 1011.42 1011.09 1010.66 1010.12 1009.47 1008.72 1007.87 1006.96 1006.00 1005.03 1004.09 1003.21
1013.67 1013.68 1013.71 1013.74 1013.77 1013.79 1013.79 1013.77 1013.74 1013.69 1013.64 1013.60 1013.56 1013.54 1013.53 1013.54 1013.55 1013.55 1013.55 1013.53 1013.48 1013.41 1013.31 1013.19 1013.06 1012.91 1012.76 1012.61 1012.45 1012.28 1012.08 1011.85 1011.57 1011.23 1010.80 1010.27 1009.66 1008.95 1008.17 1007.32 1006.45 1005.57 1004.72 1003.92
1014.11 1014.03 1013.97 1013.92 1013.87 1013.83 1013.78 1013.72 1013.66 1013.61 1013.56 1013.53 1013.52 1013.52 1013.55 1013.58 1013.63 1013.67 1013.70 1013.71 1013.70 1013.65 1013.58 1013.48 1013.36 1013.22 1013.07 1012.91 1012.74 1012.55 1012.34 1012.09 1011.80 1011.46 1011.04 1010.55 1009.99 1009.35 1008.65 1007.91 1007.14 1006.37 1005.62 1004.91
1014.59 1014.42 1014.26 1014.12 1014.00 1013.88 1013.77 1013.67 1013.58 1013.51 1013.47 1013.44 1013.45 1013.48 1013.53 1013.60 1013.68 1013.76 1013.83 1013.87 1013.89 1013.88 1013.84 1013.77 1013.67 1013.54 1013.40 1013.24 1013.06 1012.86 1012.64 1012.39 1012.11 1011.77 1011.39 1010.94 1010.43 1009.87 1009.27 1008.63 1007.97 1007.30 1006.66 1006.04
Thickness
5727 5733 5733 5732 5731 5725 5717 5715 5708 5719 5724 5740 5746 5749 5755 5757 5757 5757 5756 5755 5754 5752 5750 5747 5744 5741 5738 5734 5729 5725 5719 5714 5710 5706 5702 5698 5694 5690 5687 5684 5682 5678 5675 5671
5723 5731 5729 5726 5730 5728 5724 5723 5721 5725 5728 5744 5746 5748 5751 5753 5754 5753 5754 5755 5755 5754 5750 5747 5745 5742 5738 5733 5728 5722 5717 5713 5709 5703 5699 5695 5691 5688 5684 5681 5678 5675 5671 5668
5705 5716 5719 5711 5724 5725 5724 5726 5725 5722 5732 5738 5738 5741 5744 5747 5750 5751 5752 5754 5753 5753 5752 5749 5747 5743 5737 5734 5727 5719 5714 5710 5706 5701 5696 5692 5689 5684 5681 5678 5674 5671 5668 5664
5694 5702 5693 5715 5730 5729 5724 5724 5724 5725 5729 5732 5733 5736 5738 5741 5743 5746 5748 5749 5749 5749 5748 5746 5744 5740 5734 5728 5722 5716 5711 5706 5702 5697 5693 5688 5684 5681 5677 5674 5670 5667 5664 5661
5682 5684 5693 5711 5720 5718 5713 5716 5721 5720 5724 5728 5732 5733 5731 5734 5737 5740 5743 5745 5745 5745 5743 5740 5737 5733 5727 5721 5716 5710 5706 5702 5699 5695 5690 5685 5681 5677 5674 5669 5666 5663 5660 5656
5678 5680 5680 5704 5718 5721 5713 5705 5719 5716 5716 5719 5723 5715 5715 5723 5727 5732 5735 5736 5737 5737 5734 5730 5728 5724 5718 5713 5708 5705 5703 5700 5695 5691 5686 5682 5678 5674 5670 5665 5661 5658 5655 5652
5674 5674 5686 5708 5714 5713 5693 5698 5710 5709 5708 5708 5705 5704 5706 5712 5716 5720 5724 5726 5727 5726 5722 5719 5717 5714 5709 5705 5701 5700 5697 5693 5688 5684 5680 5677 5672 5668 5663 5659 5655 5651 5649 5647
5667 5667 5679 5706 5705 5698 5696 5700 5701 5700 5699 5698 5697 5698 5700 5702 5704 5706 5709 5712 5713 5712 5709 5707 5705 5703 5699 5696 5695 5691 5688 5684 5680 5677 5673 5670 5665 5660 5656 5652 5647 5644 5641 5640
5678 5682 5694 5699 5698 5697 5696 5693 5693 5691 5692 5692 5690 5688 5688 5688 5690 5692 5695 5697 5697 5696 5694 5693 5692 5691 5688 5686 5685 5682 5679 5676 5672 5668 5664 5661 5656 5652 5647 5642 5638 5636 5633 5632
5679 5687 5692 5693 5692 5692 5690 5688 5687 5686 5685 5683 5680 5678 5677 5677 5678 5680 5681 5681 5681 5681 5679 5677 5678 5678 5676 5674 5673 5671 5668 5665 5661 5658 5654 5650 5646 5642 5638 5633 5629 5627 5624 5623
5676 5683 5685 5687 5686 5686 5684 5682 5680 5677 5675 5673 5672 5668 5666 5665 5665 5667 5668 5667 5667 5666 5664 5662 5662 5662 5663 5662 5660 5658 5655 5652 5648 5645 5642 5638 5635 5632 5629 5627 5622 5619 5617 5614
5674 5681 5677 5677 5680 5680 5676 5672 5670 5667 5664 5662 5661 5658 5656 5654 5653 5654 5655 5654 5653 5651 5650 5649 5649 5648 5648 5647 5646 5644 5641 5638 5634 5631 5629 5626 5623 5621 5619 5615 5613 5608 5605 5601
5675 5676 5674 5673 5672 5670 5666 5662 5660 5658 5654 5651 5649 5648 5646 5643 5642 5642 5642 5641 5640 5639 5638 5637 5636 5635 5634 5633 5632 5629 5626 5623 5620 5617 5614 5611 5609 5606 5604 5604 5601 5597 5594 5591
5668 5668 5662 5660 5658 5657 5654 5651 5648 5646 5643 5640 5638 5636 5635 5633 5631 5630 5628 5628 5627 5626 5625 5624 5623 5621 5620 5618 5617 5614 5611 5608 5605 5601 5598 5596 5593 5591 5588 5587 5586 5586 5584 5580
5656 5657 5652 5649 5646 5643 5641 5639 5635 5631 5629 5627 5625 5624 5623 5621 5619 5618 5617 5616 5615 5614 5612 5611 5609 5607 5606 5604 5601 5598 5595 5592 5589 5586 5583 5580 5578 5575 5573 5570 5569 5569 5569 5568
5642 5641 5640 5636 5632 5628 5627 5625 5621 5617 5616 5615 5613 5612 5611 5610 5608 5607 5606 5604 5602 5600 5598 5596 5594 5593 5591 5588 5585 5582 5579 5578 5575 5571 5568 5565 5562 5559 5557 5555 5553 5552 5551 5551
5629 5624 5622 5619 5617 5615 5613 5611 5609 5607 5605 5604 5602 5601 5599 5598 5597 5595 5594 5592 5589 5587 5585 5582 5581 5580 5577 5573 5570 5567 5564 5561 5559 5556 5552 5549 5546 5543 5541 5538 5536 5536 5536 5534
5619 5615 5612 5608 5604 5602 5600 5598 5597 5596 5595 5594 5592 5590 5589 5587 5584 5583 5581 5579 5577 5575 5573 5571 5569 5566 5563 5559 5555 5552 5548 5545 5542 5539 5536 5533 5530 5527 5524 5522 5520 5520 5520 5520
5607 5604 5600 5597 5594 5591 5588 5587 5586 5585 5584 5583 5581 5579 5577 5575 5573 5571 5569 5566 5563 5561 5561 5559 5556 5552 5549 5546 5543 5538 5534 5531 5528 5525 5521 5517 5515 5512 5509 5507 5506 5505 5505 5506
5594 5591 5588 5585 5583 5581 5578 5576 5575 5573 5572 5570 5568 5566 5564 5563 5560 5558 5555 5552 5549 5548 5547 5544 5541 5538 5535 5532 5529 5524 5521 5518 5515 5511 5508 5505 5502 5499 5497 5495 5494 5493 5494 5494
5580 5578 5575 5573 5571 5569 5567 5565 5563 5561 5560 5558 5555 5553 5551 5549 5547 5544 5541 5539 5539 5536 5532 5530 5527 5524 5521 5517 5515 5511 5508 5504 5501 5498 5495 5493 5490 5488 5486 5485 5484 5484 5484 5484
5565 5563 5562 5560 5558 5556 5554 5552 5551 5549 5547 5545 5543 5541 5538 5536 5533 5530 5527 5524 5524 5522 5519 5516 5513 5510 5507 5504 5501 5498 5494 5491 5489 5486 5483 5481 5479 5478 5477 5476 5475 5475 5475 5475
5552 5550 5548 5546 5544 5542 5541 5539 5537 5535 5534 5532 5529 5527 5524 5521 5518 5516 5515 5513 5510 5508 5505 5503 5500 5497 5494 5491 5488 5486 5483 5480 5477 5475 5473 5471 5469 5468 5467 5467 5466 5466 5466 5467
5539 5537 5535 5533 5531 5529 5527 5525 5523 5521 5520 5517 5515 5513 5510 5508 5506 5503 5501 5499 5497 5495 5493 5490 5487 5485 5482 5480 5477 5474 5471 5469 5467 5465 5463 5461 5460 5459 5458 5457 5457 5458 5458 5460
5526 5524 5522 5520 5518 5515 5513 5511 5510 5508 5507 5504 5502 5500 5498 5495 5492 5491 5489 5487 5485 5483 5481 5478 5475 5473 5471 5468 5466 5463 5461 5459 5456 5455 5453 5452 5451 5450 5450 5450 5450 5451 5452 5455
5512 5510 5508 5506 5504 5502 5500 5498 5496 5495 5493 5491 5490 5488 5486 5483 5481 5479 5477 5475 5474 5471 5469 5466 5464 5461 5459 5457 5455 5453 5451 5449 5447 5445 5444 5443 5443 5443 5444 5444 5445 5446 5448 5451
5499 5497 5495 5494 5493 5490 5488 5486 5484 5482 5480 5479 5477 5476 5474 5472 5470 5468 5467 5465 5463 5460 5458 5455 5452 5450 5448 5446 5444 5442 5440 5439 5437 5437 5436 5437 5437 5438 5439 5440 5442 5444 5446 5449